H1 CPF 2 NER 2022 4 20 9 110 01 glonass142 H2 2001801 9142 45358 2022 4 20 0 0 0 2022 4 23 23 45 0 900 1 1 0 0 0 1 H9 10 0 59689 0.00000 0 23752062.819 -9156988.114 -1562120.235 10 0 59689 900.00000 0 23328534.481 -9141450.403 -4752273.752 10 0 59689 1800.00000 0 22567539.583 -8909445.582 -7850041.683 10 0 59689 2700.00000 0 21511511.573 -8422896.640 -10795181.045 10 0 59689 3600.00000 0 20211721.033 -7653752.131 -13530405.311 10 0 59689 4500.00000 0 18726085.608 -6585430.398 -16002504.281 10 0 59689 5400.00000 0 17116719.219 -5213783.933 -18163384.225 10 0 59689 6300.00000 0 15447323.987 -3547541.684 -19971007.651 10 0 59689 7200.00000 0 13780534.960 -1608209.271 -21390214.007 10 0 59689 8100.00000 0 12175329.464 570570.036 -22393405.316 10 0 59689 9000.00000 0 10684609.955 2944168.027 -22961083.437 10 0 59689 9900.00000 0 9353061.791 5458590.634 -23082228.644 10 0 59689 10800.00000 0 8215375.436 8052496.624 -22754512.413 10 0 59689 11700.00000 0 7294907.139 10659532.343 -21984340.528 10 0 59689 12600.00000 0 6602833.519 13210885.602 -20786725.853 10 0 59689 13500.00000 0 6137834.605 15637952.773 -19184993.416 10 0 59689 14400.00000 0 5886317.547 17875008.268 -17210323.626 10 0 59689 15300.00000 0 5823170.491 19861765.436 -14901142.563 10 0 59689 16200.00000 0 5913013.712 21545722.432 -12302371.275 10 0 59689 17100.00000 0 6111894.136 22884195.558 -9464548.708 10 0 59689 18000.00000 0 6369350.744 23845955.585 -6442845.563 10 0 59689 18900.00000 0 6630762.644 24412399.257 -3295988.455 10 0 59689 19800.00000 0 6839879.742 24578207.705 -85115.583 10 0 59689 20700.00000 0 6941428.286 24351465.004 3127413.374 10 0 59689 21600.00000 0 6883680.497 23753232.890 6279229.689 10 0 59689 22500.00000 0 6620879.122 22816600.419 9309166.471 10 0 59689 23400.00000 0 6115414.076 21585249.367 12158444.209 10 0 59689 24300.00000 0 5339658.901 20111596.359 14771807.985 10 0 59689 25200.00000 0 4277389.226 18454590.181 17098594.475 10 0 59689 26100.00000 0 2924723.113 16677256.953 19093708.423 10 0 59689 27000.00000 0 1290543.216 14844095.961 20718490.256 10 0 59689 27900.00000 0 -603617.695 13018434.777 21941458.832 10 0 59689 28800.00000 0 -2724223.909 11259853.731 22738915.653 10 0 59689 29700.00000 0 -5026890.731 9621786.450 23095399.664 10 0 59689 30600.00000 0 -7457998.423 8149395.673 23003984.451 10 0 59689 31500.00000 0 -9956700.217 6877812.040 22466412.434 10 0 59689 32400.00000 0 -12457242.390 5830808.282 21493063.639 10 0 59689 33300.00000 0 -14891501.345 5019963.320 20102759.375 10 0 59689 34200.00000 0 -17191633.468 4444350.470 18322404.174 10 0 59689 35100.00000 0 -19292728.696 4090762.234 16186472.161 10 0 59689 36000.00000 0 -21135358.182 3934461.882 13736346.897 10 0 59689 36900.00000 0 -22667910.409 3940430.108 11019526.579 10 0 59689 37800.00000 0 -23848618.512 4065054.176 8088709.123 10 0 59689 38700.00000 0 -24647194.090 4258188.330 5000774.131 10 0 59689 39600.00000 0 -25045998.792 4465498.378 1815681.111 10 0 59689 40500.00000 0 -25040704.221 4630991.104 -1404694.856 10 0 59689 41400.00000 0 -24640411.978 4699621.010 -4597767.300 10 0 59689 42300.00000 0 -23867228.356 4619863.396 -7701458.514 10 0 59689 43200.00000 0 -22755311.244 4346143.879 -10655411.422 10 0 59689 44100.00000 0 -21349429.107 3841020.379 -13402168.938 10 0 59689 45000.00000 0 -19703092.609 3077023.973 -15888297.108 10 0 59689 45900.00000 0 -17876337.551 2038079.422 -18065429.593 10 0 59689 46800.00000 0 -15933252.427 720443.939 -19891212.742 10 0 59689 47700.00000 0 -13939354.714 -866876.746 -21330132.482 10 0 59689 48600.00000 0 -11958926.127 -2702253.915 -22354206.882 10 0 59689 49500.00000 0 -10052418.610 -4752098.964 -22943530.963 10 0 59689 50400.00000 0 -8274039.696 -6972037.343 -23086663.275 10 0 59689 51300.00000 0 -6669618.007 -9308545.125 -22780846.987 10 0 59689 52200.00000 0 -5274837.671 -11700980.601 -22032061.391 10 0 59689 53100.00000 0 -4113914.867 -14083926.544 -20854903.045 10 0 59689 54000.00000 0 -3198770.845 -16389745.871 -19272298.997 10 0 59689 54900.00000 0 -2528734.919 -18551244.395 -17315057.768 10 0 59689 55800.00000 0 -2090788.581 -20504329.691 -15021266.887 10 0 59689 56700.00000 0 -1860339.074 -22190555.304 -12435548.757 10 0 59689 57600.00000 0 -1802488.451 -23559444.217 -9608189.389 10 0 59689 58500.00000 0 -1873743.324 -24570494.610 -6594157.128 10 0 59689 59400.00000 0 -2024091.909 -25194784.349 -3452030.706 10 0 59689 60300.00000 0 -2199359.493 -25416107.426 -242857.722 10 0 59689 61200.00000 0 -2343741.852 -25231595.264 2971033.784 10 0 59689 62100.00000 0 -2402408.659 -24651797.483 6127247.234 10 0 59689 63000.00000 0 -2324066.178 -23700219.449 9164529.039 10 0 59689 63900.00000 0 -2063370.420 -22412336.706 12023955.911 10 0 59689 64800.00000 0 -1583088.450 -20834128.266 14650074.945 10 0 59689 65700.00000 0 -855916.294 -19020190.663 16991974.542 10 0 59689 66600.00000 0 134123.452 -17031512.074 19004265.724 10 0 59689 67500.00000 0 1390763.542 -14932999.591 20647955.479 10 0 59689 68400.00000 0 2905092.637 -12790862.665 21891195.962 10 0 59689 69300.00000 0 4655691.941 -10669961.446 22709895.801 10 0 59689 70200.00000 0 6609303.149 -8631229.759 23088182.456 10 0 59689 71100.00000 0 8722000.989 -6729279.104 23018707.323 10 0 59689 72000.00000 0 10940822.662 -5010282.440 22502788.043 10 0 59689 72900.00000 0 13205787.731 -3510224.753 21550385.401 10 0 59689 73800.00000 0 15452225.765 -2253592.224 20179915.050 10 0 59689 74700.00000 0 17613316.070 -1252553.743 18417897.227 10 0 59689 75600.00000 0 19622734.932 -506668.122 16298450.510 10 0 59689 76500.00000 0 21417300.947 -3128.605 13862638.519 10 0 59689 77400.00000 0 22939508.631 282466.024 11157681.298 10 0 59689 78300.00000 0 24139844.746 384846.466 8236045.824 10 0 59689 79200.00000 0 24978790.450 347367.589 5154432.504 10 0 59689 80100.00000 0 25428425.004 219934.894 1972676.962 10 0 59689 81000.00000 0 25473563.294 56650.672 -1247411.776 10 0 59689 81900.00000 0 25112378.737 -86720.165 -4443254.057 10 0 59689 82800.00000 0 24356484.686 -155356.736 -7552719.486 10 0 59689 83700.00000 0 23230470.300 -97950.135 -10515339.696 10 0 59689 84600.00000 0 21770909.852 130877.061 -13273489.791 10 0 59689 85500.00000 0 20024886.752 568403.227 -15773514.673 10 0 59690 0.00000 0 18048094.298 1241984.956 -17966777.652 10 0 59690 900.00000 0 15902591.690 2167657.875 -19810611.552 10 0 59690 1800.00000 0 13654312.194 3349220.373 -21269150.577 10 0 59690 2700.00000 0 11370424.388 4777841.331 -22314030.621 10 0 59690 3600.00000 0 9116659.538 6432208.718 -22924941.377 10 0 59690 4500.00000 0 6954715.820 8279214.147 -23090020.881 10 0 59690 5400.00000 0 4939847.777 10275145.600 -22806084.856 10 0 59690 6300.00000 0 3118741.177 12367339.146 -22078686.594 10 0 59690 7200.00000 0 1527761.444 14496221.095 -20922006.427 10 0 59690 8100.00000 0 191647.833 16597655.667 -19358573.089 10 0 59690 9000.00000 0 -877293.220 18605500.355 -17418822.452 10 0 59690 9900.00000 0 -1679463.143 20454262.272 -15140502.329 10 0 59690 10800.00000 0 -2227704.661 22081744.542 -12567934.929 10 0 59690 11700.00000 0 -2546506.413 23431572.044 -9751151.402 10 0 59690 12600.00000 0 -2670713.723 24455490.817 -6744915.485 10 0 59690 13500.00000 0 -2643801.395 25115344.857 -3607655.483 10 0 59690 14400.00000 0 -2515782.750 25384647.647 -400325.605 10 0 59690 15300.00000 0 -2340844.410 25249682.706 2814780.719 10 0 59690 16200.00000 0 -2174807.792 24710087.378 5975242.147 10 0 59690 17100.00000 0 -2072525.454 23778895.763 9019721.512 10 0 59690 18000.00000 0 -2085322.900 22482039.460 11889154.855 10 0 59690 18900.00000 0 -2258594.390 20857327.471 14527894.304 10 0 59690 19800.00000 0 -2629654.536 18952948.309 16884782.863 10 0 59690 20700.00000 0 -3225936.488 16825557.193 18914140.527 10 0 59690 21600.00000 0 -4063612.834 14538028.206 20576643.310 10 0 59690 22500.00000 0 -5146697.530 12156964.936 21840078.856 10 0 59690 23400.00000 0 -6466667.008 9750072.865 22679964.775 10 0 59690 24300.00000 0 -8002617.031 7383502.131 23080018.508 10 0 59690 25200.00000 0 -9721949.648 5119270.213 23032470.287 10 0 59690 26100.00000 0 -11581562.582 3012870.654 22538213.476 10 0 59690 27000.00000 0 -13529492.682 1111166.065 21606789.572 10 0 59690 27900.00000 0 -15506946.199 -549348.165 20256207.939 10 0 59690 28800.00000 0 -17450632.439 -1943838.178 18512603.295 10 0 59690 29700.00000 0 -19295304.638 -3059931.039 16409736.891 10 0 59690 30600.00000 0 -20976402.977 -3897986.676 13988350.097 10 0 59690 31500.00000 0 -22432689.903 -4470831.587 11295382.082 10 0 59690 32400.00000 0 -23608767.932 -4802966.049 8383065.817 10 0 59690 33300.00000 0 -24457374.444 -4929278.549 5307919.219 10 0 59690 34200.00000 0 -24941356.929 -4893321.906 2129650.598 10 0 59690 35100.00000 0 -25035245.126 -4745224.225 -1090000.562 10 0 59690 36000.00000 0 -24726353.264 -4539323.358 -4288464.897 10 0 59690 36900.00000 0 -24015365.078 -4331625.495 -7403562.735 10 0 59690 37800.00000 0 -22916376.177 -4177196.166 -10374717.728 10 0 59690 38700.00000 0 -21456391.064 -4127594.962 -13144140.312 10 0 59690 39600.00000 0 -19674295.303 -4228463.536 -15657957.177 10 0 59690 40500.00000 0 -17619345.483 -4517370.003 -17867264.255 10 0 59690 41400.00000 0 -15349239.908 -5022002.008 -19729082.251 10 0 59690 42300.00000 0 -12927850.762 -5758785.861 -21207195.754 10 0 59690 43200.00000 0 -10422712.494 -6731991.088 -22272859.557 10 0 59690 44100.00000 0 -7902371.321 -7933359.161 -22905358.449 10 0 59690 45000.00000 0 -5433706.503 -9342272.926 -23092409.720 10 0 59690 45900.00000 0 -3079334.858 -10926460.452 -22830400.782 10 0 59690 46800.00000 0 -895206.381 -12643204.481 -22124457.508 10 0 59690 47700.00000 0 1071509.324 -14441007.286 -20988342.108 10 0 59690 48600.00000 0 2784158.501 -16261641.601 -19444182.735 10 0 59690 49500.00000 0 4217889.252 -18042501.991 -17522040.071 10 0 59690 50400.00000 0 5360435.572 -19719158.273 -15259319.480 10 0 59690 51300.00000 0 6212368.150 -21228004.029 -12700040.143 10 0 59690 52200.00000 0 6786803.002 -22508889.200 -9893975.480 10 0 59690 53100.00000 0 7108581.823 -23507626.184 -6895681.790 10 0 59690 54000.00000 0 7212960.200 -24178264.282 -3763434.186 10 0 59690 54900.00000 0 7143860.500 -24485036.909 -558090.852 10 0 59690 55800.00000 0 6951764.555 -24403899.830 2658091.886 10 0 59690 56700.00000 0 6691336.299 -23923595.905 5822670.245 10 0 59690 57600.00000 0 6418875.813 -23046201.789 8874225.638 10 0 59690 58500.00000 0 6189713.047 -21787133.837 11753555.385 10 0 59690 59400.00000 0 6055651.839 -20174613.167 14404818.396 10 0 59690 60300.00000 0 6062572.431 -18248612.388 16776613.785 10 0 59690 61200.00000 0 6248293.739 -16059328.125 18822971.777 10 0 59690 62100.00000 0 6640785.536 -13665242.986 20504238.376 10 0 59690 63000.00000 0 7256805.846 -11130857.419 21787837.372 10 0 59690 63900.00000 0 8101020.985 -8524185.427 22648895.688 10 0 59690 64800.00000 0 9165645.491 -5914117.485 23070720.769 10 0 59690 65700.00000 0 10430617.639 -3367759.234 23045121.389 10 0 59690 66600.00000 0 11864303.916 -947855.455 22572566.080 10 0 59690 67500.00000 0 13424704.006 1289594.993 21662176.267 10 0 59690 68400.00000 0 15061107.042 3297435.395 20331554.043 10 0 59690 69300.00000 0 16716131.058 5039072.535 18606447.472 10 0 59690 70200.00000 0 18328061.540 6489752.633 16520259.198 10 0 59690 71100.00000 0 19833392.265 7637339.602 14113406.952 10 0 59690 72000.00000 0 21169462.791 8482563.801 11432547.495 10 0 59690 72900.00000 0 22277082.533 9038731.554 8529678.126 10 0 59690 73800.00000 0 23103031.477 9330908.106 5461132.452 10 0 59690 74700.00000 0 23602332.177 9394608.763 2286489.494 10 0 59690 75600.00000 0 23740197.041 9274053.812 -932582.914 10 0 59690 76500.00000 0 23493568.088 9020061.290 -4133527.910 10 0 59690 77400.00000 0 22852183.381 8687667.160 -7254118.813 10 0 59690 78300.00000 0 21819124.152 8333574.177 -10233673.557 10 0 59690 79200.00000 0 20410818.497 8013538.131 -13014240.100 10 0 59690 80100.00000 0 18656500.465 7779802.892 -15541729.009 10 0 59690 81000.00000 0 16597146.441 7678693.687 -17766970.607 10 0 59690 81900.00000 0 14283932.685 7748471.278 -19646675.682 10 0 59690 82800.00000 0 11776278.214 8017538.619 -21144280.663 10 0 59690 83700.00000 0 9139554.518 8503076.552 -22230660.762 10 0 59690 84600.00000 0 6442557.480 9210166.872 -22884697.221 10 0 59690 85500.00000 0 3754846.862 10131440.402 -23093687.723 10 0 59691 0.00000 0 1144064.173 11247265.380 -22853592.302 10 0 59691 900.00000 0 -1326661.089 12526469.440 -22169109.908 10 0 59691 1800.00000 0 -3601105.750 13927563.639 -21053584.805 10 0 59691 2700.00000 0 -5632053.502 15400419.505 -19528744.298 10 0 59691 3600.00000 0 -7383011.515 16888327.377 -17624273.197 10 0 59691 4500.00000 0 -8829473.995 18330350.282 -15377233.308 10 0 59691 5400.00000 0 -9959681.044 19663874.381 -12831339.304 10 0 59691 6300.00000 0 -10774842.577 20827248.764 -10036105.073 10 0 59691 7200.00000 0 -11288819.492 21762403.464 -7045877.383 10 0 59691 8100.00000 0 -11527277.172 22417335.449 -3918775.857 10 0 59691 9000.00000 0 -11526348.587 22748357.859 -715560.160 10 0 59691 9900.00000 0 -11330864.807 22722017.693 2501553.108 10 0 59691 10800.00000 0 -10992228.957 22316601.208 5670100.458 10 0 59691 11700.00000 0 -10566024.466 21523163.648 8728584.675 10 0 59691 12600.00000 0 -10109459.479 20346040.007 11617667.186 10 0 59691 13500.00000 0 -9678755.941 18802815.400 14281316.506 10 0 59691 14400.00000 0 -9326593.858 16923756.137 16667890.622 10 0 59691 15300.00000 0 -9099718.666 14750725.222 18731132.654 10 0 59691 16200.00000 0 -9036812.433 12335627.298 20431061.100 10 0 59691 17100.00000 0 -9166718.391 9738447.340 21734738.184 10 0 59691 18000.00000 0 -9507093.294 7024964.251 22616902.157 10 0 59691 18900.00000 0 -10063544.173 4264233.500 23060452.128 10 0 59691 19800.00000 0 -10829285.874 1525942.327 23056776.676 10 0 59691 20700.00000 0 -11785334.070 -1122253.786 22605920.285 10 0 59691 21600.00000 0 -12901226.291 -3617304.155 21716584.561 10 0 59691 22500.00000 0 -14136241.592 -5903139.932 20405964.026 10 0 59691 23400.00000 0 -15441068.730 -7932757.526 18699419.221 10 0 59691 24300.00000 0 -16759853.973 -9669922.966 16629992.756 10 0 59691 25200.00000 0 -18032543.713 -11090427.171 14237776.784 10 0 59691 26100.00000 0 -19197424.364 -12182840.501 11569143.260 10 0 59691 27000.00000 0 -20193753.500 -12948735.727 8675851.048 10 0 59691 27900.00000 0 -20964371.855 -13402370.584 5614046.393 10 0 59691 28800.00000 0 -21458186.180 -13569843.624 2443175.772 10 0 59691 29700.00000 0 -21632417.945 -13487759.302 -775168.017 10 0 59691 30600.00000 0 -21454522.342 -13201458.948 -3978444.075 10 0 59691 31500.00000 0 -20903695.693 -12762892.730 -7104382.190 10 0 59691 32400.00000 0 -19971906.531 -12228223.087 -10092198.023 10 0 59691 33300.00000 0 -18664405.647 -11655261.549 -12883780.435 10 0 59691 34200.00000 0 -16999692.398 -11100848.072 -15424827.075 10 0 59691 35100.00000 0 -15008937.545 -10618284.413 -17665905.628 10 0 59691 36000.00000 0 -12734885.808 -10254930.823 -19563419.568 10 0 59691 36900.00000 0 -10230283.361 -10050068.263 -21080459.292 10 0 59691 37800.00000 0 -7555895.394 -10033117.036 -22187521.982 10 0 59691 38700.00000 0 -4778195.998 -10222287.539 -22863086.224 10 0 59691 39600.00000 0 -1966826.437 -10623720.416 -23094030.317 10 0 59691 40500.00000 0 808072.698 -11231152.690 -22875886.365 10 0 59691 41400.00000 0 3478544.771 -12026124.161 -22212925.417 10 0 59691 42300.00000 0 5981404.506 -12978715.569 -21118072.161 10 0 59691 43200.00000 0 8260622.441 -14048787.524 -19612650.979 10 0 59691 44100.00000 0 10269407.894 -15187668.136 -17725968.343 10 0 59691 45000.00000 0 11971904.480 -16340218.268 -15494739.740 10 0 59691 45900.00000 0 13344428.574 -17447187.369 -12962372.317 10 0 59691 46800.00000 0 14376200.308 -18447760.557 -10178117.229 10 0 59691 47700.00000 0 15069537.881 -19282189.421 -7196108.393 10 0 59691 48600.00000 0 15439508.662 -19894395.449 -4074306.564 10 0 59691 49500.00000 0 15513053.323 -20234436.118 -873369.541 10 0 59691 50400.00000 0 15327621.412 -20260729.432 2344529.050 10 0 59691 51300.00000 0 14929377.270 -19941942.955 5516909.071 10 0 59691 52200.00000 0 14371053.209 -19258467.575 8582197.468 10 0 59691 53100.00000 0 13709541.479 -18203413.774 11480922.239 10 0 59691 54000.00000 0 13003327.337 -16783088.368 14156863.576 10 0 59691 54900.00000 0 12309871.881 -15016931.405 16558140.011 10 0 59691 55800.00000 0 11683055.095 -12936915.599 18638208.792 10 0 59691 56700.00000 0 11170786.677 -10586432.950 20356761.719 10 0 59691 57600.00000 0 10812884.901 -8018714.377 21680499.824 10 0 59691 58500.00000 0 10639312.304 -5294847.518 22583772.649 10 0 59691 59400.00000 0 10668841.936 -2481474.151 23049070.535 10 0 59691 60300.00000 0 10908209.889 351738.229 23067361.074 10 0 59691 61200.00000 0 11351789.584 3134746.895 22638263.596 10 0 59691 62100.00000 0 11981801.591 5799797.800 21770058.518 10 0 59691 63000.00000 0 12769050.641 8283993.730 20479531.206 10 0 59691 63900.00000 0 13674159.448 10531661.236 18791652.925 10 0 59691 64800.00000 0 14649248.403 12496419.165 16739104.382 10 0 59691 65700.00000 0 15639991.373 14142863.701 14361650.183 10 0 59691 66600.00000 0 16587961.999 15447800.378 11705375.456 10 0 59691 67500.00000 0 17433172.349 16400972.270 8821798.535 10 0 59691 68400.00000 0 18116697.434 17005254.335 5766876.171 10 0 59691 69300.00000 0 18583274.929 17276306.083 2599920.134 10 0 59691 70200.00000 0 18783770.163 17241697.486 -617553.988 10 0 59691 71100.00000 0 18677401.679 16939545.248 -3823023.396 10 0 59691 72000.00000 0 18233632.473 16416717.227 -6954176.416 10 0 59691 72900.00000 0 17433645.898 15726681.262 -9950128.393 10 0 59691 73800.00000 0 16271342.630 14927089.730 -12752610.887 10 0 59691 74700.00000 0 14753815.321 14077202.465 -15307110.273 10 0 59691 75600.00000 0 12901279.570 13235257.526 -17563933.062 10 0 59691 76500.00000 0 10746462.830 12455901.460 -19479176.735 10 0 59691 77400.00000 0 8333475.805 11787788.114 -21015586.846 10 0 59691 78300.00000 0 5716212.620 11271447.739 -22143283.617 10 0 59691 79200.00000 0 2956345.841 10937516.595 -22840343.927 10 0 59691 80100.00000 0 120999.449 10805401.833 -23093227.469 10 0 59691 81000.00000 0 -2719803.762 10882437.971 -22897039.026 10 0 59691 81900.00000 0 -5495814.605 11163570.425 -22255621.965 10 0 59691 82800.00000 0 -8139238.842 11631579.262 -21181481.313 10 0 59691 83700.00000 0 -10587316.423 12257833.547 -19695538.038 10 0 59691 84600.00000 0 -12784691.913 13003544.265 -17826719.365 10 0 59691 85500.00000 0 -14685477.934 13821462.726 -15611393.179 10 0 59692 0.00000 0 -16254926.465 14657952.500 -13092657.729 10 0 59692 900.00000 0 -17470639.988 15455347.603 -10319499.120 10 0 59692 1800.00000 0 -18323271.003 16154495.991 -7345836.594 10 0 59692 2700.00000 0 -18816684.777 16697382.141 -4229469.873 10 0 59692 3600.00000 0 -18967577.763 17029716.522 -1030952.642 10 0 59692 4500.00000 0 -18804570.081 17103382.727 2187586.755 10 0 59692 5400.00000 0 -18366811.508 16878638.589 5363653.891 10 0 59692 6300.00000 0 -17702160.969 16325978.100 8435602.297 10 0 59692 7200.00000 0 -16865017.305 15427575.379 11343829.009 10 0 59692 8100.00000 0 -15913893.557 14178249.601 14031928.395 10 0 59692 9000.00000 0 -14908837.453 12585909.943 16447782.026 10 0 59692 9900.00000 0 -13908806.930 10671461.506 18544563.707 10 0 59692 10800.00000 0 -12969111.025 8468175.558 20281640.841 10 0 59692 11700.00000 0 -12139023.347 6020549.706 21625355.391 10 0 59692 12600.00000 0 -11459667.864 3382704.703 22549670.041 10 0 59692 13500.00000 0 -10962265.135 616383.569 23036667.910 10 0 59692 14400.00000 0 -10666811.922 -2211365.007 23076896.765 10 0 59692 15300.00000 0 -10581249.062 -5030724.029 22669551.527 10 0 59692 16200.00000 0 -10701152.197 -7771762.398 21822491.717 10 0 59692 17100.00000 0 -11009958.212 -10367097.224 20552093.357 10 0 59692 18000.00000 0 -11479718.075 -12754454.904 18882937.767 10 0 59692 18900.00000 0 -12072344.829 -14879025.766 16847342.606 10 0 59692 19800.00000 0 -12741304.825 -16695515.301 14484743.348 10 0 59692 20700.00000 0 -13433681.606 -18169807.221 11840936.309 10 0 59692 21600.00000 0 -14092526.045 -19280169.494 8967196.985 10 0 59692 22500.00000 0 -14659394.017 -20017953.318 5919290.048 10 0 59692 23400.00000 0 -15076964.601 -20387755.918 2756389.774 10 0 59692 24300.00000 0 -15291628.039 -20407040.527 -460068.408 10 0 59692 25200.00000 0 -15255933.570 -20105229.685 -3667582.874 10 0 59692 26100.00000 0 -14930792.806 -19522310.189 -6803803.652 10 0 59692 27000.00000 0 -14287344.470 -18707008.810 -9807749.002 10 0 59692 27900.00000 0 -13308400.350 -17714616.051 -12620996.432 10 0 59692 28800.00000 0 -11989410.111 -16604550.249 -15188824.246 10 0 59692 29700.00000 0 -10338902.750 -15437765.285 -17461280.853 10 0 59692 30600.00000 0 -8378384.727 -14274111.746 -19394160.572 10 0 59692 31500.00000 0 -6141697.716 -13169763.276 -20949866.583 10 0 59692 32400.00000 0 -3673861.723 -12174816.887 -22098144.155 10 0 59692 33300.00000 0 -1029450.895 -11331168.491 -22816669.912 10 0 59692 34200.00000 0 1729430.897 -10670753.140 -23091485.795 10 0 59692 35100.00000 0 4535491.018 -10214223.827 -22917269.503 10 0 59692 36000.00000 0 7318808.640 -9970124.164 -22297436.373 10 0 59692 36900.00000 0 10009508.743 -9934589.290 -21244070.859 10 0 59692 37800.00000 0 12540438.749 -10091587.087 -19777689.097 10 0 59692 38700.00000 0 14849736.865 -10413688.936 -17926837.192 10 0 59692 39600.00000 0 16883185.621 -10863336.943 -15727533.097 10 0 59692 40500.00000 0 18596253.153 -11394553.605 -13222562.962 10 0 59692 41400.00000 0 19955737.831 -11955021.143 -10460645.641 10 0 59692 42300.00000 0 20940948.329 -12488442.171 -7495481.846 10 0 59692 43200.00000 0 21544370.871 -12937081.405 -4384706.588 10 0 59692 44100.00000 0 21771796.871 -13244380.486 -1188765.625 10 0 59692 45000.00000 0 21641906.857 -13357534.921 2030261.807 10 0 59692 45900.00000 0 21185329.486 -13229923.820 5209870.712 10 0 59692 46800.00000 0 20443216.445 -12823289.390 8288344.655 10 0 59692 47700.00000 0 19465394.296 -12109573.847 11205952.813 10 0 59692 48600.00000 0 18308171.914 -11072335.933 13906106.381 10 0 59692 49500.00000 0 17031896.371 -9707687.017 16336452.113 10 0 59692 50400.00000 0 15698360.320 -8024706.968 18449882.008 10 0 59692 51300.00000 0 14368169.795 -6045321.778 20205440.194 10 0 59692 52200.00000 0 13098182.590 -3803647.268 21569110.170 10 0 59692 53100.00000 0 11939124.114 -1344825.436 22514467.895 10 0 59692 54000.00000 0 10933479.890 1276599.181 23023188.932 10 0 59692 54900.00000 0 10113752.143 3998696.822 23085400.467 10 0 59692 55800.00000 0 9501152.702 6754480.925 22699871.853 10 0 59692 56700.00000 0 9104786.251 9474452.430 21874040.189 10 0 59692 57600.00000 0 8921357.596 12089255.718 20623870.319 10 0 59692 58500.00000 0 8935414.977 14532337.176 18973551.518 10 0 59692 59400.00000 0 9120119.111 16742497.087 16955036.096 10 0 59692 60300.00000 0 9438505.804 18666229.689 14607427.942 10 0 59692 61200.00000 0 9845189.300 20259754.566 11976231.996 10 0 59692 62100.00000 0 10288434.907 21490655.120 9112478.290 10 0 59692 63000.00000 0 10712513.726 22339055.917 6071736.759 10 0 59692 63900.00000 0 11060240.178 22798289.632 2913041.532 10 0 59692 64800.00000 0 11275584.883 22875025.640 -302254.705 10 0 59692 65700.00000 0 11306251.999 22588854.812 -3511673.975 10 0 59692 66600.00000 0 11106111.247 21971347.922 -6652830.311 10 0 59692 67500.00000 0 10637380.746 21064627.421 -9664646.968 10 0 59692 68400.00000 0 9872467.127 19919512.880 -12488549.227 10 0 59692 69300.00000 0 8795383.793 18593318.556 -15069608.883 10 0 59692 70200.00000 0 7402686.028 17147396.218 -17357617.543 10 0 59692 71100.00000 0 5703881.975 15644527.127 -19308067.443 10 0 59692 72000.00000 0 3721300.850 14146273.339 -20883020.283 10 0 59692 72900.00000 0 1489422.511 12710400.046 -22051847.101 10 0 59692 73800.00000 0 -946304.729 11388477.435 -22791824.831 10 0 59692 74700.00000 0 -3531109.593 10223762.850 -23088578.040 10 0 59692 75600.00000 0 -6202938.800 9249451.928 -22936357.490 10 0 59692 76500.00000 0 -8894809.129 8487371.703 -22338150.329 10 0 59692 77400.00000 0 -11537373.062 7947169.966 -21305619.931 10 0 59692 78300.00000 0 -14061591.654 7626034.155 -19858876.700 10 0 59692 79200.00000 0 -16401403.746 7508950.699 -18026084.319 10 0 59692 80100.00000 0 -18496280.635 7569492.995 -15842909.171 10 0 59692 81000.00000 0 -20293560.130 7771103.875 -13351823.608 10 0 59692 81900.00000 0 -21750463.116 8068817.540 -10601276.664 10 0 59692 82800.00000 0 -22835708.899 8411347.424 -7644748.487 10 0 59692 83700.00000 0 -23530662.517 8743450.976 -4539707.094 10 0 59692 84600.00000 0 -23829966.845 9008470.622 -1346488.017 10 0 59692 85500.00000 0 -23741633.916 9150942.842 1872880.916 99